TimeCST,TemperatureF,Dew PointF,Humidity,Sea Level PressureIn,VisibilityMPH,Wind Direction,Wind SpeedMPH,Gust SpeedMPH,PrecipitationIn,Events,Conditions,WindDirDegrees,DateUTC
12:13 AM,-5.8,-14.8,65,30.40,10.0,Calm,Calm,-,N/A,,Clear,0,2013-02-21 06:13:00
12:32 AM,-7.6,-14.8,71,30.41,10.0,ENE,3.5,-,N/A,,Clear,70,2013-02-21 06:32:00
12:53 AM,-5.8,-14.8,65,30.41,10.0,NE,3.5,-,N/A,,Clear,50,2013-02-21 06:53:00
1:13 AM,-9.4,-16.6,71,30.41,10.0,Calm,Calm,-,N/A,,Clear,0,2013-02-21 07:13:00
1:32 AM,-11.2,-16.6,77,30.42,10.0,Calm,Calm,-,N/A,,Clear,0,2013-02-21 07:32:00
1:53 AM,-14.8,-18.4,84,30.42,10.0,Calm,Calm,-,N/A,,Clear,0,2013-02-21 07:53:00
2:12 AM,-14.8,-20.2,77,30.42,10.0,Calm,Calm,-,N/A,,Clear,0,2013-02-21 08:12:00
2:33 AM,-16.6,-20.2,84,30.43,10.0,Calm,Calm,-,N/A,,Clear,0,2013-02-21 08:33:00
2:53 AM,-16.6,-20.2,84,30.43,10.0,Calm,Calm,-,N/A,,Clear,0,2013-02-21 08:53:00
3:12 AM,-16.6,-22.0,76,30.43,10.0,Calm,Calm,-,N/A,,Clear,0,2013-02-21 09:12:00
3:33 AM,-16.6,-22.0,76,30.44,10.0,Calm,Calm,-,N/A,,Clear,0,2013-02-21 09:33:00
3:53 AM,-18.4,-23.8,76,30.44,10.0,Calm,Calm,-,N/A,,Clear,0,2013-02-21 09:53:00
4:12 AM,-18.4,-25.6,70,30.44,10.0,Calm,Calm,-,N/A,,Clear,0,2013-02-21 10:12:00
4:33 AM,-20.2,-25.6,76,30.44,10.0,Calm,Calm,-,N/A,,Clear,0,2013-02-21 10:33:00
4:53 AM,-20.2,-25.6,76,30.45,10.0,Calm,Calm,-,N/A,,Clear,0,2013-02-21 10:53:00
5:12 AM,-18.4,-23.8,76,30.45,10.0,Calm,Calm,-,N/A,,Clear,0,2013-02-21 11:12:00
5:33 AM,-20.2,-25.6,76,30.45,10.0,Calm,Calm,-,N/A,,Clear,0,2013-02-21 11:33:00
5:53 AM,-20.2,-25.6,76,30.45,10.0,Calm,Calm,-,N/A,,Clear,0,2013-02-21 11:53:00
6:13 AM,-20.2,-27.4,69,30.44,10.0,Calm,Calm,-,N/A,,Clear,0,2013-02-21 12:13:00
6:33 AM,-20.2,-25.6,76,30.45,10.0,Calm,Calm,-,N/A,,Clear,0,2013-02-21 12:33:00
6:53 AM,-20.2,-25.6,76,30.44,10.0,Calm,Calm,-,N/A,,Clear,0,2013-02-21 12:53:00
7:13 AM,-18.4,-23.8,76,30.44,10.0,Calm,Calm,-,N/A,,Clear,0,2013-02-21 13:13:00
7:32 AM,-20.2,-27.4,69,30.42,10.0,NNE,4.6,-,N/A,,Clear,30,2013-02-21 13:32:00
7:53 AM,-18.4,-23.8,76,30.41,10.0,NNE,3.5,-,N/A,,Clear,20,2013-02-21 13:53:00
8:13 AM,-14.8,-20.2,77,30.39,10.0,Calm,Calm,-,N/A,,Clear,0,2013-02-21 14:13:00
8:33 AM,-11.2,-16.6,77,30.38,10.0,Calm,Calm,-,N/A,,Clear,0,2013-02-21 14:33:00
8:53 AM,-7.6,-14.8,71,30.36,10.0,Calm,Calm,-,N/A,,Clear,0,2013-02-21 14:53:00
9:13 AM,-5.8,-14.8,65,30.38,10.0,Calm,Calm,-,N/A,,Clear,0,2013-02-21 15:13:00
9:33 AM,-2.2,-14.8,55,30.42,10.0,Calm,Calm,-,N/A,,Clear,0,2013-02-21 15:33:00
9:53 AM,-0.4,-13.0,55,30.44,10.0,Calm,Calm,-,N/A,,Clear,0,2013-02-21 15:53:00
10:13 AM,3.2,-11.2,51,30.44,10.0,Calm,Calm,-,N/A,,Clear,0,2013-02-21 16:13:00
10:33 AM,6.8,-9.4,48,30.44,10.0,Calm,Calm,-,N/A,,Clear,0,2013-02-21 16:33:00
10:53 AM,8.6,-7.6,48,30.43,10.0,Calm,Calm,-,N/A,,Clear,0,2013-02-21 16:53:00
11:13 AM,10.4,-7.6,44,30.42,10.0,Calm,Calm,-,N/A,,Clear,0,2013-02-21 17:13:00
11:33 AM,12.2,-7.6,41,30.41,10.0,Calm,Calm,-,N/A,,Clear,0,2013-02-21 17:33:00
11:53 AM,12.2,-7.6,41,30.40,10.0,Calm,Calm,-,N/A,,Clear,0,2013-02-21 17:53:00
12:13 PM,14.0,-5.8,41,30.39,10.0,Calm,Calm,-,N/A,,Clear,0,2013-02-21 18:13:00
12:33 PM,15.8,-5.8,38,30.39,10.0,NE,4.6,-,N/A,,Clear,40,2013-02-21 18:33:00
12:46 PM,15.8,-4.0,41,30.39,10.0,NNE,4.6,-,N/A,,Clear,30,2013-02-21 18:46:00
1:24 PM,-9999,-9999,N/A,30.37,-9999.0,North,-9999.0,-,N/A,,Unknown,0,2013-02-21 19:24:00
1:27 PM,-9999,-9999,N/A,30.37,-9999.0,NNE,3.5,-,N/A,,Unknown,30,2013-02-21 19:27:00
1:33 PM,19.4,-0.4,42,30.37,10.0,Calm,Calm,-,N/A,,Unknown,0,2013-02-21 19:33:00
1:53 PM,21.2,-0.4,39,30.34,10.0,NE,4.6,-,N/A,,Clear,40,2013-02-21 19:53:00
2:12 PM,21.2,-0.4,39,30.34,10.0,NNE,3.5,-,N/A,,Clear,30,2013-02-21 20:12:00
2:33 PM,23.0,1.4,39,30.33,10.0,Calm,Calm,-,N/A,,Clear,0,2013-02-21 20:33:00
2:53 PM,24.8,3.2,40,30.32,10.0,East,6.9,-,N/A,,Clear,90,2013-02-21 20:53:00
3:12 PM,24.8,5.0,43,30.31,10.0,ESE,5.8,-,N/A,,Clear,110,2013-02-21 21:12:00
3:33 PM,24.8,6.8,46,30.31,10.0,East,8.1,-,N/A,,Clear,80,2013-02-21 21:33:00
3:52 PM,24.8,6.8,46,30.30,10.0,East,6.9,-,N/A,,Clear,100,2013-02-21 21:52:00
4:13 PM,24.8,6.8,46,30.30,10.0,ENE,9.2,-,N/A,,Clear,70,2013-02-21 22:13:00
4:33 PM,23.0,6.8,50,30.30,10.0,East,4.6,-,N/A,,Clear,90,2013-02-21 22:33:00
4:53 PM,23.0,6.8,50,30.30,10.0,East,5.8,-,N/A,,Clear,90,2013-02-21 22:53:00
5:13 PM,21.2,3.2,46,30.30,10.0,NE,5.8,-,N/A,,Clear,50,2013-02-21 23:13:00
5:33 PM,19.4,3.2,49,30.30,10.0,ENE,4.6,-,N/A,,Clear,60,2013-02-21 23:33:00
5:53 PM,19.4,3.2,49,30.31,10.0,East,4.6,-,N/A,,Clear,80,2013-02-21 23:53:00
6:13 PM,17.6,3.2,53,30.32,10.0,Calm,Calm,-,N/A,,Clear,0,2013-02-22 00:13:00
6:33 PM,12.2,3.2,67,30.30,10.0,ESE,5.8,-,N/A,,Clear,120,2013-02-22 00:33:00
6:53 PM,14.0,6.8,73,30.31,10.0,SE,4.6,-,N/A,,Clear,130,2013-02-22 00:53:00
7:13 PM,12.2,6.8,79,30.30,10.0,SE,5.8,-,N/A,,Clear,140,2013-02-22 01:13:00
7:33 PM,10.4,6.8,85,30.28,10.0,ESE,3.5,-,N/A,,Clear,110,2013-02-22 01:33:00
7:53 PM,10.4,6.8,85,30.28,10.0,ESE,4.6,-,N/A,,Clear,110,2013-02-22 01:53:00
8:13 PM,12.2,8.6,85,30.28,10.0,East,5.8,-,N/A,,Clear,100,2013-02-22 02:13:00
8:33 PM,10.4,8.6,92,30.27,10.0,ENE,4.6,-,N/A,,Clear,70,2013-02-22 02:33:00
8:52 PM,10.4,8.6,92,30.26,10.0,ENE,3.5,-,N/A,,Clear,70,2013-02-22 02:52:00
9:13 PM,10.4,8.6,92,30.25,10.0,ENE,3.5,-,N/A,,Clear,60,2013-02-22 03:13:00
9:33 PM,10.4,8.6,92,30.24,10.0,Calm,Calm,-,N/A,,Clear,0,2013-02-22 03:33:00
9:52 PM,10.4,8.6,92,30.24,10.0,Calm,Calm,-,N/A,,Clear,0,2013-02-22 03:52:00
10:13 PM,10.4,8.6,92,30.23,10.0,ENE,3.5,-,N/A,,Clear,70,2013-02-22 04:13:00
10:33 PM,10.4,8.6,92,30.23,10.0,Calm,Calm,-,N/A,,Mostly Cloudy,0,2013-02-22 04:33:00
10:52 PM,12.2,10.4,92,30.22,10.0,East,3.5,-,N/A,,Overcast,80,2013-02-22 04:52:00
11:13 PM,12.2,10.4,92,30.21,10.0,ENE,4.6,-,N/A,,Overcast,60,2013-02-22 05:13:00
11:33 PM,12.2,10.4,92,30.20,10.0,ENE,5.8,-,N/A,,Overcast,60,2013-02-22 05:33:00
11:53 PM,12.2,10.4,92,30.18,7.0,NE,3.5,-,N/A,,Overcast,50,2013-02-22 05:53:00